Location: Unspecified
(54.1780°N, 0.0000°E)
Time: 13:08:42
(UTC+00:00)

Tiros 1 - Pass Details

Date: 24 June 2019
Orbit: 630 x 664 km, 48.4° (Epoch: 17 August)

Event Time Altitude Azimuth Distance (km) Brightness Sun altitude
Rises 00:14:59 0° 240° (WSW) 2,945 - -12.4°
Exits shadow 00:15:22 - 239° (WSW) 2,805 10.1 -12.4°
Reaches altitude 10° 00:17:28 10° 232° (SW) 2,031 9.3 -12.3°
Maximum altitude 00:21:43 35° 166° (SSE) 1,024 7.7 -12.3°
Drops below altitude 10° 00:25:56 10° 101° (E) 2,018 9.6 -12.2°
Sets 00:28:23 0° 93° (E) 2,924 10.6 -12.2°
